Regional Weather Roundup
Issued by NWS

Home | Current Version | Previous Version | Graphics & Text | Print | Product List | Glossary On
Versions: 1 2 3 4 5 6 7 8 9 10 11 12 13 14 15 16 17 18 19 20 21 22 23 24 25 26 27 28 29 30 31 32 33 34 35 36 37 38 39 40 41 42 43 44 45 46 47 48 49 50
000
ASUS45 KCYS 041110
RWRWY

WYOMING REGIONAL WEATHER ROUNDUP
NATIONAL WEATHER SERVICE CHEYENNE WY
500 AM MDT MON MAY 04 2015

NOTE:  "FAIR" INDICATES FEW OR NO CLOUDS BELOW 12,000 FEET
WITH NO SIGNIFICANT WEATHER AND/OR OBSTRUCTIONS TO VISIBILITY.

WYZ001-041200-
YELLOWSTONE NATIONAL PARK

CITY           SKY/WX    TMP DP  RH WIND       PRES   REMARKS
LK YELLOWSTONE   N/A     27  25  92 CALM      30.12S
W YELLOWSTONE  NOT AVBL

$$
WYZ002>013-054>058-071-098>099-041200-
NORTHERN WYOMING

CITY           SKY/WX    TMP DP  RH WIND       PRES   REMARKS
JACKSON        FAIR      30  30 100 N3        30.08S
CODY           FAIR      43  37  81 N5        30.01S
GREYBULL       MOCLDY    52  38  58 SE3       29.98S
WORLAND        FAIR      48  41  76 S9        29.99R
SHERIDAN       CLOUDY    50  43  77 SE16G25   29.99S
BUFFALO        CLOUDY    48  42  80 SE13      30.06S
GILLETTE       CLOUDY    48  41  76 SE12      30.07R
HULETT         RAIN      46  45  93 CALM      30.10R
NEWCASTLE      CLOUDY    45  41  87 E9        30.12R

$$
WYZ014>020-022>026-101>103-041200-
CENTRAL WYOMING

CITY           SKY/WX    TMP DP  RH WIND       PRES   REMARKS
BIG PINEY      FAIR      33  30  88 CALM      30.09R
PINEDALE       FAIR      32  32 100 NW5       30.09S WCI  27
DUBOIS         FAIR      32  30  93 NW8       30.10R WCI  25
LANDER         FAIR      44  38  79 W6        30.03R
RIVERTON       FAIR      44  39  82 NW7       30.05R
CASPER         MOCLDY    40  40 100 N3        30.04F
DOUGLAS        FAIR      46  41  82 SE14      30.07S

$$
WYZ021-027>030-104>119-041200-
SOUTHERN WYOMING

CITY           SKY/WX    TMP DP  RH WIND       PRES   REMARKS
EVANSTON       FAIR      42  37  82 E8        30.07S
KEMMERER       FAIR      36  34  93 N8        30.09R WCI  29
FORT BRIDGER   SUNNY     41  41 100 CALM      30.10S
ROCK SPRINGS   FAIR      41  36  82 SE3       30.06S
DIXON          FAIR      43  39  87 CALM      30.09S
RAWLINS        MOCLDY    40  37  89 N9        30.08R WCI  34
SARATOGA       FAIR      39  36  87 SW6       30.08S WCI  35
LARAMIE        MOCLDY    42  39  89 S17       30.09R
CHEYENNE       CLOUDY    45  39  79 SE14      30.11R
TORRINGTON     MOCLDY    48  39  71 E9        30.09R
PINE BLUFFS    CLOUDY    46  37  71 CALM      30.12R

$$


USA.gov is the U.S. government's official web portal to all federal, state and local government web resources and services.